Leuchars, United Kingdom

12:09 AM BST on May 01, 2017 (GMT +0100)
Leuchars Air Base

Weather History for EGQL - November, 2012

Change the Weather History Date:

Tuesday, November 27, 2012

  Actual Average Record
Temperature  
Mean Temperature 42 °F -  
Max Temperature 46 °F 42 °F 55 °F (2011)
Min Temperature 38 °F 34 °F 24 °F (2010)
Degree Days  
Heating Degree Days 23    
Moisture  
Dew Point 34 °F    
Average Humidity 73    
Maximum Humidity 81    
Minimum Humidity 59    
Precipitation  
Precipitation 0.00 in - - ()
Sea Level Pressure  
Sea Level Pressure 29.96 in    
Wind  
Wind Speed 9 mph ()    
Max Wind Speed 15 mph    
Max Gust Speed -    
Visibility 6.8 miles    
Events      
Averages and records for this station are not official NWS values.
T = Trace of Precipitation, MM = Missing Value Source: Averaged Metar Reports

Daily Weather History Graph

Daily Weather History Graph

Search for Another Location

Airport or City:

Trip Planner

Search our weather history database for the weather conditions in past years. The results will help you decide how hot, cold, wet, or windy it might be!

Date:

Astronomy

Nov. 27, 2012 Rise Set
Actual Time 8:14 AM GMT 3:43 PM GMT
Civil Twilight 7:28 AM GMT 4:29 PM GMT
Nautical Twilight 6:40 AM GMT 5:17 PM GMT
Astronomical Twilight 5:55 AM GMT 6:02 PM GMT
Moon 3:10 PM GMT (11/27) 6:59 AM GMT (11/27)
Length of Visible Light 9h 00m
Length of Day
7h 29m
Waxing Gibbous, 99% of the Moon is Illuminated
Nov 27
Waxing Gibbous
Nov 28
Full
Dec 6
Last Quarter
Dec 13
New
Dec 20
First Quarter

Hourly Weather History & Observations

Time (GMT) Temp. Windchill Dew Point Humidity Pressure Visibility Wind Dir Wind Speed Gust Speed Precip Events Conditions
12:50 AM 41.0 °F 34.7 °F 35.6 °F 81% 29.83 in 6.2 mi North 10.4 mph - N/A   Overcast
1:50 AM 41.0 °F 33.1 °F 33.8 °F 76% 29.83 in - North 15.0 mph - N/A   Clear
2:50 AM 41 °F - 35 °F 71% 29.86 in 37 mi North 13.8 mph - -   Mostly Cloudy
2:50 AM 41.0 °F 33.5 °F 35.6 °F 81% 29.83 in 6.2 mi North 13.8 mph - N/A   Mostly Cloudy
3:50 AM 41.0 °F 33.9 °F 33.8 °F 76% 29.86 in 6.2 mi NNE 12.7 mph - N/A   Mostly Cloudy
4:50 AM 41.0 °F 35.2 °F 35.6 °F 81% 29.86 in 6.2 mi North 9.2 mph - N/A   Mostly Cloudy
5:50 AM 42 °F - 35 °F 68% 29.90 in 37 mi North 10.4 mph - -   Mostly Cloudy
5:50 AM 41.0 °F 34.7 °F 35.6 °F 81% 29.89 in 6.2 mi North 10.4 mph - N/A   Mostly Cloudy
6:50 AM 39.2 °F 33.6 °F 33.8 °F 81% 29.89 in 6.2 mi North 8.1 mph - N/A   Mostly Cloudy
7:50 AM 39.2 °F 35.0 °F 33.8 °F 81% 29.92 in 6.2 mi North 5.8 mph - N/A   Mostly Cloudy
8:50 AM 38 °F - 34 °F 79% 29.95 in 28 mi NNW 4.6 mph - -   Scattered Clouds
8:50 AM 39.2 °F 35.9 °F 33.8 °F 81% 29.95 in 6.2 mi NNW 4.6 mph - N/A   Partly Cloudy
9:50 AM 41.0 °F 38.0 °F 35.6 °F 81% 29.95 in 6.2 mi NNW 4.6 mph - N/A   Partly Cloudy
10:50 AM 44.6 °F 38.8 °F 35.6 °F 71% 29.98 in 6.2 mi North 11.5 mph - N/A   Partly Cloudy
11:50 AM 44 °F - 36 °F 66% 29.98 in 25 mi North 11.5 mph - -   Partly Cloudy
11:50 AM 44.6 °F 38.8 °F 35.6 °F 71% 29.98 in 6.2 mi North 11.5 mph - N/A   Partly Cloudy
12:50 PM 46.4 °F 40.7 °F 35.6 °F 66% 29.98 in 6.2 mi North 12.7 mph - N/A   Scattered Clouds
2:50 PM 44 °F - 35 °F 62% 29.99 in 25 mi North 8.1 mph - -   Partly Cloudy
2:50 PM 44.6 °F 40.2 °F 35.6 °F 71% 29.98 in 6.2 mi North 8.1 mph - N/A   Scattered Clouds
3:50 PM 41.0 °F 37.1 °F 33.8 °F 76% 29.98 in 6.2 mi North 5.8 mph - N/A   Scattered Clouds
4:50 PM 42.8 °F 37.0 °F 33.8 °F 70% 30.01 in 6.2 mi NNE 10.4 mph - N/A   Scattered Clouds
5:50 PM 40 °F - 34 °F 71% 30.04 in 19 mi NNW 5.8 mph - -   Scattered Clouds
5:50 PM 39.2 °F 35.0 °F 33.8 °F 81% 30.01 in 6.2 mi NNW 5.8 mph - N/A   Partly Cloudy
6:50 PM 42.8 °F 39.3 °F 33.8 °F 70% 30.04 in 6.2 mi NW 5.8 mph - N/A   Mostly Cloudy
7:50 PM 41.0 °F 38.0 °F 32.0 °F 70% 30.04 in 6.2 mi NW 4.6 mph - N/A   Scattered Clouds
8:50 PM 41 °F - 32 °F 59% 30.06 in 28 mi NNW 5.8 mph - -   Partly Cloudy
8:50 PM 41.0 °F 37.1 °F 32.0 °F 70% 30.04 in 6.2 mi NNW 5.8 mph - N/A   Scattered Clouds
9:50 PM 41.0 °F 36.4 °F 32.0 °F 70% 30.06 in 6.2 mi NNW 6.9 mph - N/A   Mostly Cloudy
10:50 PM 39.2 °F 34.2 °F 32.0 °F 75% 30.06 in 6.2 mi NW 6.9 mph - N/A   Partly Cloudy
11:50 PM 38 °F - 31 °F 67% 30.08 in 37 mi NNW 5.8 mph - -   Scattered Clouds
11:50 PM 39.2 °F 35.0 °F 30.2 °F 70% 30.06 in 6.2 mi NNW 5.8 mph - N/A   Partly Cloudy